| time (UTC) | temp F | wind direction | speed knots | gust knots | rain 1hr in | rain 24hr in | rain mn in | humidity % | barometer mb |
| 20260831172510 | 78 | 85 | 8.7 | 16.5 | 0.00 | 0.00 | 0.00 | 42 | 1007.5 |
| 20260831171521 | 78 | 117 | 8.7 | 16.5 | 0.00 | 0.00 | 0.00 | 43 | 1007.6 |
| 20260831170531 | 76 | 140 | 9.6 | 16.5 | 0.00 | 0.00 | 0.00 | 43 | 1007.6 |
| 20260831165515 | 76 | 97 | 8.7 | 15.6 | 0.00 | 0.00 | 0.00 | 47 | 1007.6 |
| 20260831164530 | 76 | 99 | 9.6 | 15.6 | 0.00 | 0.00 | 0.00 | 46 | 1007.5 |
| 20260831163520 | 76 | 83 | 8.7 | 14.8 | 0.00 | 0.00 | 0.00 | 48 | 1007.5 |
| 20260831161403 | 76 | 119 | 8.7 | 13.0 | 0.00 | 0.00 | 0.00 | 48 | 1007.5 |
| 20260831160346 | 76 | 125 | 7.0 | 13.9 | 0.00 | 0.00 | 0.00 | 48 | 1007.4 |
| 20260831155330 | 75 | 123 | 8.7 | 13.9 | 0.00 | 0.00 | 0.00 | 47 | 1007.2 |
| 20260831154345 | 74 | 95 | 8.7 | 13.9 | 0.00 | 0.00 | 0.00 | 48 | 1007.1 |
| 20260831153317 | 73 | 150 | 9.6 | 16.5 | 0.00 | 0.00 | 0.00 | 53 | 1006.9 |
| 20260831151116 | 72 | 117 | 8.7 | 15.6 | 0.00 | 0.00 | 0.00 | 60 | 1006.9 |
| 20260831150109 | 72 | 117 | 7.8 | 14.8 | 0.00 | 0.00 | 0.00 | 63 | 1006.9 |
| 20260831145044 | 71 | 91 | 7.8 | 13.9 | 0.00 | 0.00 | 0.00 | 63 | 1006.7 |
| 20260831144030 | 71 | 92 | 7.8 | 13.9 | 0.00 | 0.00 | 0.00 | 63 | 1006.6 |
| 20260831143034 | 70 | 123 | 7.0 | 13.0 | 0.00 | 0.00 | 0.00 | 64 | 1006.4 |
| 20260831142028 | 70 | 113 | 6.1 | 13.0 | 0.00 | 0.00 | 0.00 | 64 | 1006.2 |
| 20260831141047 | 68 | 115 | 7.8 | 13.0 | 0.00 | 0.00 | 0.00 | 67 | 1006.2 |
| 20260831140014 | 67 | 127 | 8.7 | 14.8 | 0.00 | 0.00 | 0.00 | 70 | 1005.9 |
| 20260831134947 | 67 | 124 | 8.7 | 15.6 | 0.00 | 0.00 | 0.00 | 70 | 1005.9 |
| 20260831133933 | 67 | 113 | 9.6 | 15.6 | 0.00 | 0.00 | 0.00 | 69 | 1005.9 |
| 20260831132926 | 67 | 133 | 7.0 | 12.2 | 0.00 | 0.00 | 0.00 | 70 | 1005.9 |
| 20260831131944 | 66 | 134 | 7.0 | 11.3 | 0.00 | 0.00 | 0.00 | 71 | 1005.7 |
| 20260831130959 | 66 | 109 | 2.6 | 7.8 | 0.00 | 0.00 | 0.00 | 71 | 1005.7 |
| 20260831130010 | 66 | 94 | 1.7 | 7.8 | 0.00 | 0.00 | 0.00 | 70 | 1005.6 |
| 20260831124937 | 67 | 132 | 3.5 | 8.7 | 0.00 | 0.00 | 0.00 | 69 | 1005.5 |
| 20260831123934 | 67 | 104 | 4.3 | 9.6 | 0.00 | 0.00 | 0.00 | 68 | 1005.4 |
| 20260831122933 | 67 | 111 | 6.1 | 11.3 | 0.00 | 0.00 | 0.00 | 67 | 1005.2 |
| 20260831121859 | 67 | 111 | 9.6 | 17.4 | 0.00 | 0.00 | 0.00 | 69 | 1005.1 |
| 20260831120916 | 66 | 130 | 8.7 | 17.4 | 0.00 | 0.00 | 0.00 | 70 | 1005.2 |
| 20260831114812 | 66 | 98 | 6.1 | 11.3 | 0.00 | 0.00 | 0.00 | 70 | 1005.5 |
| 20260831113817 | 67 | 77 | 6.1 | 11.3 | 0.00 | 0.00 | 0.00 | 68 | 1005.7 |
| 20260831112822 | 67 | 90 | 6.1 | 10.4 | 0.00 | 0.00 | 0.00 | 66 | 1005.6 |
| 20260831111808 | 67 | 105 | 5.2 | 10.4 | 0.00 | 0.00 | 0.00 | 64 | 1005.8 |
| 20260831110817 | 68 | 94 | 5.2 | 11.3 | 0.00 | 0.00 | 0.00 | 62 | 1005.9 |
| 20260831105756 | 68 | 93 | 6.1 | 12.2 | 0.00 | 0.00 | 0.00 | 59 | 1005.7 |
| 20260831104807 | 69 | 113 | 7.0 | 12.2 | 0.00 | 0.00 | 0.00 | 58 | 1005.7 |
| 20260831103757 | 69 | 109 | 5.2 | 9.6 | 0.00 | 0.00 | 0.00 | 57 | 1005.7 |
| 20260831102809 | 69 | 130 | 3.5 | 14.8 | 0.00 | 0.00 | 0.00 | 54 | 1005.6 |
| 20260831101816 | 69 | 116 | 6.1 | 14.8 | 0.00 | 0.00 | 0.00 | 55 | 1005.7 |
| 20260831100829 | 69 | 106 | 4.3 | 8.7 | 0.00 | 0.00 | 0.00 | 53 | 1005.5 |
| 20260831095828 | 68 | 81 | 4.3 | 9.6 | 0.00 | 0.00 | 0.00 | 55 | 1005.4 |
| 20260831094814 | 68 | 83 | 3.5 | 9.6 | 0.00 | 0.00 | 0.00 | 55 | 1005.3 |
| 20260831093800 | 70 | 129 | 2.6 | 5.2 | 0.00 | 0.00 | 0.00 | 53 | 1004.9 |
| 20260831091710 | 69 | 120 | 5.2 | 7.8 | 0.00 | 0.00 | 0.00 | 55 | 1004.8 |
| 20260831090705 | 68 | 158 | 4.3 | 8.7 | 0.00 | 0.00 | 0.00 | 55 | 1004.5 |
| 20260831085720 | 68 | 138 | 4.3 | 8.7 | 0.00 | 0.00 | 0.00 | 56 | 1004.5 |
| 20260831083605 | 69 | 121 | 3.5 | 7.8 | 0.00 | 0.00 | 0.00 | 54 | 1004.4 |
| 20260831082557 | 69 | 87 | 2.6 | 7.8 | 0.00 | 0.00 | 0.00 | 54 | 1004.5 |
| 20260831081610 | 70 | 47 | 0.9 | 3.5 | 0.00 | 0.00 | 0.00 | 53 | 1004.3 |
| 20260831080540 | 70 | 137 | 3.5 | 9.6 | 0.00 | 0.00 | 0.00 | 56 | 1004.3 |
| 20260831075520 | 68 | 125 | 4.3 | 9.6 | 0.00 | 0.00 | 0.00 | 61 | 1004.4 |
| 20260831073423 | 70 | 313 | 0.0 | 2.6 | 0.00 | 0.00 | 0.00 | 56 | 1005.3 |
| 20260831071257 | 71 | 75 | 0.9 | 1.7 | 0.00 | 0.00 | 0.00 | 49 | 1004.8 |
| 20260831070306 | 71 | 118 | 1.7 | 3.5 | 0.00 | 0.00 | 0.00 | 49 | 1004.7 |
| 20260831065306 | 70 | 146 | 2.6 | 3.5 | 0.00 | 0.00 | 0.00 | 49 | 1004.7 |
| 20260831064324 | 70 | 113 | 2.6 | 5.2 | 0.00 | 0.00 | 0.00 | 49 | 1004.7 |
| 20260831063344 | 70 | 122 | 2.6 | 5.2 | 0.00 | 0.00 | 0.00 | 50 | 1004.7 |
| 20260831062345 | 71 | 104 | 1.7 | 3.5 | 0.00 | 0.00 | 0.00 | 48 | 1004.7 |
| 20260831061341 | 73 | 121 | 1.7 | 2.6 | 0.00 | 0.00 | 0.00 | 45 | 1004.6 |
| 20260831060324 | 73 | 149 | 1.7 | 3.5 | 0.00 | 0.00 | 0.00 | 44 | 1004.6 |
| 20260831055307 | 73 | 161 | 1.7 | 3.5 | 0.00 | 0.00 | 0.00 | 45 | 1004.6 |
| 20260831054245 | 73 | 171 | 0.9 | 2.6 | 0.00 | 0.00 | 0.00 | 45 | 1004.9 |
| 20260831053235 | 74 | 130 | 0.9 | 2.6 | 0.00 | 0.00 | 0.00 | 44 | 1005.0 |
| 20260831052241 | 75 | 127 | 2.6 | 6.1 | 0.00 | 0.00 | 0.00 | 43 | 1005.1 |
| 20260831051215 | 75 | 140 | 3.5 | 6.1 | 0.00 | 0.00 | 0.00 | 43 | 1005.0 |
| 20260831045047 | 74 | 123 | 3.5 | 5.2 | 0.00 | 0.00 | 0.00 | 43 | 1005.1 |
| 20260831042853 | 74 | 142 | 3.5 | 5.2 | 0.00 | 0.00 | 0.00 | 44 | 1005.1 |
| 20260831041838 | 74 | 119 | 2.6 | 7.8 | 0.00 | 0.00 | 0.00 | 44 | 1004.9 |
| 20260831040819 | 75 | 96 | 4.3 | 7.8 | 0.00 | 0.00 | 0.00 | 44 | 1004.9 |
| 20260831035840 | 75 | 111 | 4.3 | 7.0 | 0.00 | 0.00 | 0.00 | 43 | 1004.8 |
| 20260831034811 | 76 | 137 | 3.5 | 7.0 | 0.00 | 0.00 | 0.00 | 42 | 1004.7 |
| 20260831033815 | 76 | 132 | 2.6 | 4.3 | 0.00 | 0.00 | 0.00 | 41 | 1004.6 |
| 20260831031711 | 77 | 141 | 2.6 | 5.2 | 0.00 | 0.00 | 0.00 | 39 | 1004.2 |
| 20260831025612 | 77 | 175 | 3.5 | 8.7 | 0.00 | 0.00 | 0.00 | 38 | 1003.8 |
| 20260831024622 | 77 | 152 | 4.3 | 8.7 | 0.00 | 0.00 | 0.00 | 38 | 1003.7 |
| 20260831023615 | 77 | 192 | 4.3 | 8.7 | 0.00 | 0.00 | 0.00 | 39 | 1003.6 |
| 20260831022627 | 77 | 163 | 4.3 | 8.7 | 0.00 | 0.00 | 0.00 | 38 | 1003.5 |
| 20260831021605 | 76 | 179 | 4.3 | 10.4 | 0.00 | 0.00 | 0.00 | 39 | 1003.4 |
| 20260831020544 | 76 | 229 | 6.1 | 10.4 | 0.00 | 0.00 | 0.00 | 41 | 1003.4 |
| 20260831015521 | 76 | 238 | 6.1 | 11.3 | 0.00 | 0.00 | 0.00 | 42 | 1003.5 |
| 20260831012217 | 78 | 268 | 7.0 | 15.6 | 0.00 | 0.00 | 0.00 | 42 | 1003.5 |
| 20260831010053 | 80 | 269 | 7.8 | 17.4 | 0.00 | 0.00 | 0.00 | 39 | 1003.3 |
| 20260831005053 | 82 | 273 | 2.6 | 10.4 | 0.00 | 0.00 | 0.00 | 37 | 1003.3 |
| 20260831004110 | 83 | 84 | 2.6 | 9.6 | 0.00 | 0.00 | 0.00 | 36 | 1003.2 |
| 20260831003048 | 83 | 73 | 5.2 | 13.9 | 0.00 | 0.00 | 0.00 | 37 | 1003.0 |
| 20260831002046 | 83 | 55 | 6.1 | 13.9 | 0.00 | 0.00 | 0.00 | 36 | 1002.8 |
| 20260831001044 | 84 | 78 | 7.0 | 11.3 | 0.00 | 0.00 | 0.00 | 34 | 1002.7 |
| 20260830234927 | 86 | 77 | 8.7 | 14.8 | 0.00 | 0.00 | 0.00 | 32 | 1002.4 |
| 20260830233950 | 86 | 57 | 7.0 | 15.6 | 0.00 | 0.00 | 0.00 | 32 | 1002.4 |
| 20260830232946 | 87 | 66 | 7.8 | 15.6 | 0.00 | 0.00 | 0.00 | 29 | 1002.4 |
| 20260830231915 | 89 | 92 | 7.8 | 15.6 | 0.00 | 0.00 | 0.00 | 26 | 1002.4 |
| 20260830230935 | 90 | 65 | 7.8 | 14.8 | 0.00 | 0.00 | 0.00 | 25 | 1002.5 |
| 20260830225953 | 90 | 73 | 7.0 | 15.6 | 0.00 | 0.00 | 0.00 | 26 | 1002.4 |
| 20260830225004 | 89 | 88 | 7.8 | 15.6 | 0.00 | 0.00 | 0.00 | 28 | 1002.5 |
| 20260830224002 | 89 | 87 | 3.5 | 13.9 | 0.00 | 0.00 | 0.00 | 27 | 1002.4 |
| 20260830222927 | 89 | 73 | 5.2 | 10.4 | 0.00 | 0.00 | 0.00 | 27 | 1002.7 |
| 20260830221918 | 90 | 75 | 6.1 | 11.3 | 0.00 | 0.00 | 0.00 | 29 | 1002.7 |
| 20260830220902 | 88 | 156 | 6.1 | 15.6 | 0.00 | 0.00 | 0.00 | 30 | 1002.8 |
| 20260830215832 | 89 | 105 | 7.8 | 15.6 | 0.00 | 0.00 | 0.00 | 29 | 1003.0 |
| 20260830214840 | 88 | 148 | 7.0 | 11.3 | 0.00 | 0.00 | 0.00 | 31 | 1003.0 |
| 20260830213900 | 89 | 44 | 4.3 | 13.9 | 0.00 | 0.00 | 0.00 | 30 | 1003.3 |
| 20260830212903 | 88 | 119 | 7.0 | 13.9 | 0.00 | 0.00 | 0.00 | 31 | 1003.5 |
| 20260830211925 | 88 | 125 | 5.2 | 12.2 | 0.00 | 0.00 | 0.00 | 31 | 1003.6 |
| 20260830210859 | 88 | 68 | 5.2 | 13.0 | 0.00 | 0.00 | 0.00 | 31 | 1003.8 |
| 20260830205909 | 87 | 77 | 7.0 | 13.0 | 0.00 | 0.00 | 0.00 | 32 | 1003.9 |
| 20260830204932 | 88 | 109 | 5.2 | 12.2 | 0.00 | 0.00 | 0.00 | 32 | 1004.0 |
| 20260830203906 | 87 | 126 | 5.2 | 12.2 | 0.00 | 0.00 | 0.00 | 32 | 1004.3 |
| 20260830202832 | 86 | 79 | 4.3 | 11.3 | 0.00 | 0.00 | 0.00 | 32 | 1004.6 |
| 20260830200636 | 87 | 130 | 6.1 | 11.3 | 0.00 | 0.00 | 0.00 | 31 | 1005.0 |
| 20260830195617 | 87 | 90 | 7.0 | 13.0 | 0.00 | 0.00 | 0.00 | 30 | 1005.0 |
| 20260830194630 | 87 | 75 | 5.2 | 17.4 | 0.00 | 0.00 | 0.00 | 31 | 1005.0 |
| 20260830193630 | 86 | 74 | 7.0 | 17.4 | 0.00 | 0.00 | 0.00 | 32 | 1005.2 |
| 20260830191441 | 85 | 94 | 5.2 | 12.2 | 0.00 | 0.00 | 0.00 | 33 | 1005.4 |
| 20260830190435 | 84 | 95 | 7.8 | 12.2 | 0.00 | 0.00 | 0.00 | 34 | 1005.4 |
| 20260830185406 | 84 | 83 | 5.2 | 12.2 | 0.00 | 0.00 | 0.00 | 34 | 1005.5 |
| 20260830183230 | 85 | 129 | 6.1 | 12.2 | 0.00 | 0.00 | 0.00 | 33 | 1005.9 |
| 20260830182241 | 84 | 100 | 5.2 | 14.8 | 0.00 | 0.00 | 0.00 | 34 | 1006.0 |
| 20260830181247 | 83 | 73 | 7.0 | 14.8 | 0.00 | 0.00 | 0.00 | 36 | 1006.2 |
| 20260830175100 | 82 | 58 | 6.1 | 13.0 | 0.00 | 0.00 | 0.00 | 38 | 1006.3 |
| 20260830174059 | 82 | 132 | 7.0 | 12.2 | 0.00 | 0.00 | 0.00 | 39 | 1006.5 |
| 20260830173042 | 82 | 118 | 7.0 | 15.6 | 0.00 | 0.00 | 0.00 | 37 | 1006.6 |